• In Moldova, Republic
  • List of Countries
  • For 7 days
  • Water Temperature
  • Satellite Maps
  • Weather Map
  • Weather Widgets
  • user-avatar
    Login

    Hourly Weather Perth

    Today, 22 August, Tuesday

    Time Temperature Precipitation Wind Pressure Humidity
    00:00 +12°C° 0 mm 1 mps 764 mmHg 87%
    01:00 +11°C° 0 mm 1 mps 764 mmHg 87%
    02:00 +11°C° 0 mm 1 mps 763 mmHg 89%
    03:00 +11°C° 0 mm 1 mps 763 mmHg 89%
    04:00 +11°C° 0 mm 1 mps 764 mmHg 90%
    05:00 +10°C° 0 mm 1 mps 764 mmHg 90%
    06:00 +11°C° 0 mm 1 mps 764 mmHg 89%
    07:00 +11°C° 0 mm 1 mps 764 mmHg 87%
    08:00 +13°C° 0 mm 1 mps 764 mmHg 84%
    09:00 +15°C° 0 mm 1 mps 764 mmHg 75%
    10:00 +16°C° 0 mm 1 mps 764 mmHg 65%
    11:00 +19°C° 0 mm 1 mps 764 mmHg 56%
    12:00 +19°C° 0 mm 1 mps 764 mmHg 57%
    13:00 +18°C° 0 mm 2 mps 764 mmHg 57%
    14:00 +19°C° 0 mm 3 mps 764 mmHg 56%
    15:00 +18°C° 0 mm 3 mps 764 mmHg 60%
    16:00 +18°C° 0 mm 3 mps 764 mmHg 63%
    17:00 +18°C° 0 mm 3 mps 764 mmHg 67%
    18:00 +16°C° 0 mm 3 mps 765 mmHg 73%
    19:00 +14°C° 0 mm 3 mps 765 mmHg 79%
    20:00 +13°C° 0 mm 3 mps 766 mmHg 86%
    21:00 +12°C° 0 mm 3 mps 766 mmHg 87%
    22:00 +12°C° 0 mm 3 mps 767 mmHg 89%
    23:00 +12°C° 0 mm 3 mps 767 mmHg 90%

    Tomorrow, 23 August, Wednesday

    Time Temperature Precipitation Wind Pressure Humidity
    00:00 +11°C° 0 mm 3 mps 767 mmHg 91%
    01:00 +11°C° 0 mm 4 mps 767 mmHg 91%
    02:00 +11°C° 0 mm 4 mps 767 mmHg 92%
    03:00 +10°C° 0 mm 4 mps 767 mmHg 92%
    04:00 +10°C° 0 mm 4 mps 768 mmHg 92%
    05:00 +10°C° 0 mm 4 mps 768 mmHg 91%
    06:00 +10°C° 0 mm 4 mps 768 mmHg 89%
    07:00 +10°C° 0 mm 4 mps 768 mmHg 87%
    08:00 +10°C° 0 mm 5 mps 769 mmHg 85%
    09:00 +12°C° 0 mm 4 mps 769 mmHg 79%
    10:00 +14°C° 0 mm 4 mps 769 mmHg 73%
    11:00 +17°C° 0 mm 4 mps 769 mmHg 66%
    12:00 +17°C° 0 mm 4 mps 769 mmHg 64%
    13:00 +18°C° 0 mm 4 mps 768 mmHg 62%
    14:00 +19°C° 0 mm 3 mps 768 mmHg 60%
    15:00 +18°C° 0 mm 3 mps 768 mmHg 62%
    16:00 +18°C° 0 mm 4 mps 768 mmHg 64%
    17:00 +17°C° 0 mm 4 mps 768 mmHg 66%
    18:00 +15°C° 0 mm 4 mps 768 mmHg 69%
    19:00 +13°C° 0 mm 4 mps 769 mmHg 73%
    20:00 +12°C° 0 mm 4 mps 769 mmHg 76%
    21:00 +11°C° 0 mm 4 mps 769 mmHg 77%
    22:00 +11°C° 0 mm 4 mps 769 mmHg 78%
    23:00 +10°C° 0 mm 4 mps 769 mmHg 79%

    Day after tomorrow, 24 August, Thursday

    Time Temperature Precipitation Wind Pressure Humidity
    00:00 +10°C° 0 mm 4 mps 769 mmHg 78%
    01:00 +10°C° 0 mm 4 mps 769 mmHg 78%
    02:00 +9°C° 0 mm 5 mps 769 mmHg 78%
    03:00 +8°C° 0 mm 5 mps 769 mmHg 79%
    04:00 +8°C° 0 mm 5 mps 769 mmHg 81%
    05:00 +8°C° 0 mm 5 mps 768 mmHg 82%
    06:00 +9°C° 0 mm 5 mps 769 mmHg 81%
    07:00 +9°C° 0 mm 5 mps 769 mmHg 79%
    08:00 +10°C° 0 mm 6 mps 769 mmHg 78%
    09:00 +13°C° 0 mm 5 mps 769 mmHg 72%
    10:00 +15°C° 0 mm 5 mps 768 mmHg 67%
    11:00 +17°C° 0 mm 5 mps 768 mmHg 61%
    12:00 +19°C° 0 mm 4 mps 767 mmHg 59%
    13:00 +20°C° 0 mm 4 mps 767 mmHg 56%
    14:00 +21°C° 0 mm 4 mps 766 mmHg 53%
    15:00 +21°C° 0 mm 4 mps 766 mmHg 56%
    16:00 +20°C° 0 mm 4 mps 766 mmHg 59%
    17:00 +20°C° 0 mm 4 mps 766 mmHg 63%
    18:00 +18°C° 0 mm 4 mps 766 mmHg 66%
    19:00 +16°C° 0 mm 5 mps 766 mmHg 70%
    20:00 +14°C° 0 mm 5 mps 767 mmHg 73%
    21:00 +14°C° 0 mm 5 mps 767 mmHg 71%
    22:00 +14°C° 0 mm 5 mps 767 mmHg 69%
    23:00 +13°C° 0 mm 5 mps 767 mmHg 66%

    25 August, Friday

    Time Temperature Precipitation Wind Pressure Humidity
    00:00 +13°C° 0 mm 5 mps 766 mmHg 67%
    01:00 +12°C° 0 mm 5 mps 766 mmHg 68%
    02:00 +10°C° 0 mm 5 mps 766 mmHg 69%
    03:00 +10°C° 0 mm 5 mps 766 mmHg 72%
    04:00 +10°C° 0 mm 4 mps 766 mmHg 76%
    05:00 +10°C° 0 mm 4 mps 766 mmHg 79%
    06:00 +10°C° 0 mm 4 mps 766 mmHg 78%
    07:00 +10°C° 0 mm 4 mps 767 mmHg 77%
    08:00 +11°C° 0 mm 4 mps 767 mmHg 76%
    09:00 +13°C° 0 mm 4 mps 767 mmHg 70%
    10:00 +17°C° 0 mm 3 mps 766 mmHg 64%
    11:00 +19°C° 0 mm 3 mps 766 mmHg 58%
    12:00 +20°C° 0 mm 3 mps 766 mmHg 55%
    13:00 +20°C° 0 mm 4 mps 765 mmHg 53%
    14:00 +21°C° 0 mm 4 mps 764 mmHg 51%
    15:00 +21°C° 0 mm 4 mps 764 mmHg 56%
    16:00 +20°C° 0 mm 4 mps 764 mmHg 60%
    17:00 +19°C° 0 mm 4 mps 764 mmHg 65%
    18:00 +18°C° 0 mm 4 mps 765 mmHg 69%
    19:00 +17°C° 0 mm 4 mps 765 mmHg 73%
    20:00 +14°C° 0 mm 4 mps 766 mmHg 78%
    21:00 +14°C° 0 mm 4 mps 766 mmHg 79%
    22:00 +13°C° 0 mm 4 mps 766 mmHg 81%
    23:00 +12°C° 0 mm 4 mps 767 mmHg 83%

    26 August, Saturday

    Time Temperature Precipitation Wind Pressure Humidity
    00:00 +12°C° 0 mm 4 mps 766 mmHg 85%
    01:00 +11°C° 0 mm 4 mps 766 mmHg 86%
    02:00 +11°C° 0 mm 4 mps 766 mmHg 88%
    03:00 +11°C° 0 mm 4 mps 766 mmHg 88%
    04:00 +10°C° 0 mm 4 mps 766 mmHg 89%
    05:00 +10°C° 0 mm 4 mps 766 mmHg 89%
    06:00 +10°C° 0 mm 4 mps 767 mmHg 88%
    07:00 +10°C° 0 mm 5 mps 767 mmHg 86%
    08:00 +10°C° 0 mm 5 mps 768 mmHg 84%
    09:00 +13°C° 0 mm 5 mps 768 mmHg 78%
    10:00 +15°C° 0 mm 5 mps 768 mmHg 72%
    11:00 +17°C° 0 mm 5 mps 768 mmHg 65%
    12:00 +17°C° 0 mm 5 mps 767 mmHg 65%
    13:00 +19°C° 0 mm 5 mps 766 mmHg 64%
    14:00 +19°C° 0 mm 4 mps 766 mmHg 63%
    15:00 +19°C° 0 mm 4 mps 766 mmHg 65%
    16:00 +19°C° 0 mm 4 mps 766 mmHg 66%
    17:00 +18°C° 0 mm 3 mps 766 mmHg 68%
    18:00 +17°C° 0 mm 4 mps 766 mmHg 73%
    19:00 +15°C° 0 mm 4 mps 767 mmHg 78%
    20:00 +13°C° 0 mm 4 mps 767 mmHg 84%
    21:00 +13°C° 0 mm 4 mps 767 mmHg 83%
    22:00 +13°C° 0 mm 4 mps 767 mmHg 83%
    23:00 +13°C° 0 mm 5 mps 767 mmHg 82%

    27 August, Sunday

    Time Temperature Precipitation Wind Pressure Humidity
    00:00 +12°C° 0 mm 5 mps 767 mmHg 83%
    01:00 +12°C° 0 mm 5 mps 767 mmHg 84%
    02:00 +12°C° 0 mm 5 mps 767 mmHg 84%
    03:00 +10°C° 0 mm 5 mps 767 mmHg 86%
    04:00 +10°C° 0 mm 5 mps 767 mmHg 87%
    05:00 +10°C° 0 mm 5 mps 767 mmHg 88%
    06:00 +10°C° 0 mm 5 mps 767 mmHg 86%
    07:00 +12°C° 0 mm 5 mps 767 mmHg 85%
    08:00 +12°C° 0 mm 5 mps 768 mmHg 84%
    09:00 +14°C° 0 mm 5 mps 767 mmHg 77%
    10:00 +16°C° 0 mm 5 mps 767 mmHg 70%
    11:00 +19°C° 0 mm 5 mps 767 mmHg 63%
    12:00 +20°C° 0 mm 5 mps 766 mmHg 60%
    13:00 +21°C° 0 mm 4 mps 765 mmHg 57%
    14:00 +21°C° 0 mm 4 mps 764 mmHg 55%
    15:00 +21°C° 0 mm 4 mps 764 mmHg 58%
    16:00 +21°C° 0 mm 3 mps 764 mmHg 61%
    17:00 +20°C° 0 mm 3 mps 764 mmHg 64%
    18:00 +19°C° 0 mm 4 mps 765 mmHg 67%
    19:00 +18°C° 0 mm 4 mps 765 mmHg 70%
    20:00 +15°C° 0 mm 5 mps 765 mmHg 73%
    21:00 +15°C° 0 mm 5 mps 765 mmHg 70%
    22:00 +15°C° 0 mm 5 mps 765 mmHg 68%
    23:00 +15°C° 0 mm 6 mps 764 mmHg 66%
    Show more